KF4URA Weather Reports


Display with metric or nautical units.
time (UTC)temp
F
wind
direction
speed
MPH
gust
MPH
rain 1hr
in
rain 24hr
in
rain mn
in
humidity
%
barometer
mb
20260831111019 71 318 0.0 0.0 0.00 0.00 0.00 94 1016.6
20260831110042 71 119 0.0 0.0 0.00 0.00 0.00 95 1016.5
20260831105057 71 119 0.0 0.0 0.00 0.00 0.00 95 1016.5
20260831104118 71 119 0.0 0.0 0.00 0.00 0.00 95 1016.6
20260831103106 71 119 0.0 0.0 0.00 0.00 0.00 95 1016.6
20260831102127 71 119 0.0 0.0 0.00 0.00 0.00 95 1016.5
20260831101107 71 119 0.0 0.0 0.00 0.00 0.00 95 1016.5
20260831100114 71 119 0.0 0.0 0.00 0.00 0.00 95 1016.5
20260831095047 71 119 0.0 0.0 0.00 0.00 0.00 95 1016.5
20260831094029 71 119 0.0 0.0 0.00 0.00 0.00 95 1016.5
20260831093048 71 119 0.0 0.0 0.00 0.00 0.00 95 1016.6
20260831090900 71 119 0.0 0.0 0.00 0.00 0.00 95 1016.6
20260831085837 71 119 0.0 0.0 0.00 0.00 0.00 95 1016.6
20260831083645 71 119 0.0 0.0 0.00 0.00 0.00 95 1016.5
20260831082642 71 119 0.0 0.0 0.00 0.00 0.00 95 1016.4
20260831081650 71 119 0.0 0.0 0.00 0.00 0.00 94 1016.3
20260831080704 71 119 0.0 0.0 0.00 0.00 0.00 95 1016.2
20260831075710 71 119 0.0 0.0 0.00 0.00 0.00 94 1016.2
20260831074702 71 119 0.0 0.0 0.00 0.00 0.00 94 1016.3
20260831072553 70 119 0.0 0.0 0.00 0.00 0.00 94 1016.4
20260831071608 70 119 0.0 0.0 0.00 0.00 0.00 94 1016.5
20260831070542 70 119 0.0 0.0 0.00 0.00 0.00 94 1016.4
20260831064432 70 119 0.0 0.0 0.00 0.00 0.00 94 1016.7
20260831063408 70 119 0.0 0.0 0.00 0.00 0.00 94 1016.8
20260831062426 70 119 0.0 0.0 0.00 0.00 0.00 94 1016.9
20260831061445 70 119 0.0 0.0 0.00 0.00 0.00 93 1016.9
20260831060443 70 119 0.0 0.0 0.00 0.00 0.00 93 1016.9
20260831055410 70 119 0.0 0.0 0.00 0.00 0.00 93 1016.9
20260831054418 70 119 0.0 0.0 0.00 0.00 0.00 93 1017.0
20260831053439 70 119 0.0 0.0 0.00 0.00 0.00 93 1017.0
20260831052445 71 119 0.0 0.0 0.00 0.00 0.00 93 1017.1
20260831045207 71 119 0.0 0.0 0.00 0.00 0.00 93 1017.1
20260831044151 71 119 0.0 0.0 0.00 0.00 0.00 92 1017.1
20260831042022 71 119 0.0 0.0 0.00 0.00 0.00 92 1017.2
20260831035947 71 119 0.0 0.0 0.00 0.00 0.00 92 1017.3
20260831035002 71 119 0.0 0.0 0.00 0.00 0.00 92 1017.3
20260831034006 72 119 0.0 0.0 0.00 0.00 0.00 91 1017.4
20260831033009 72 119 0.0 0.0 0.00 0.00 0.00 91 1017.3
20260831031952 72 119 0.0 0.0 0.00 0.00 0.00 91 1017.3
20260831030924 72 119 0.0 0.0 0.00 0.00 0.00 90 1017.5
20260831025853 72 119 0.0 0.0 0.00 0.00 0.00 90 1017.4
20260831024918 72 119 0.0 0.0 0.00 0.00 0.00 89 1017.3
20260831023858 73 119 0.0 0.0 0.00 0.00 0.00 89 1017.3
20260831022832 73 119 0.0 0.0 0.00 0.00 0.00 89 1017.3
20260831020659 73 119 0.0 0.0 0.00 0.00 0.00 88 1017.6
20260831015648 74 119 0.0 0.0 0.00 0.00 0.00 87 1017.6
20260831014702 74 119 0.0 0.0 0.00 0.00 0.00 87 1017.6
20260831013711 74 119 0.0 0.0 0.00 0.00 0.00 86 1017.6
20260831012648 74 119 0.0 0.0 0.00 0.00 0.00 85 1017.6
20260831011643 75 119 0.0 0.0 0.00 0.00 0.00 84 1017.5
20260831005505 76 119 0.0 0.0 0.00 0.00 0.00 83 1017.5
20260831004527 76 119 0.0 0.0 0.00 0.00 0.00 82 1017.4
20260831003531 77 119 0.0 0.0 0.00 0.00 0.00 81 1017.3
20260831002524 77 119 0.0 0.0 0.00 0.00 0.00 80 1017.1
20260831001542 78 119 0.0 0.0 0.00 0.00 0.00 79 1017.0
20260831000518 78 119 0.0 0.0 0.00 0.00 0.00 79 1016.9
20260830235510 79 119 0.0 0.0 0.00 0.00 0.00 77 1016.8
20260830234534 80 119 0.0 0.0 0.00 0.00 0.00 76 1016.6
20260830233548 81 119 0.0 0.0 0.00 0.00 0.00 73 1016.5
20260830232518 82 119 0.0 0.0 0.00 0.00 0.00 70 1016.3
20260830230347 83 119 0.0 0.0 0.00 0.00 0.00 66 1016.1
20260830225319 83 119 0.0 0.0 0.00 0.00 0.00 64 1016.0
20260830224328 83 119 0.0 0.0 0.00 0.00 0.00 63 1016.1
20260830223344 83 119 0.0 1.0 0.00 0.00 0.00 64 1016.1
20260830222332 83 119 0.0 0.0 0.00 0.00 0.00 64 1016.0
20260830221312 83 119 0.0 0.0 0.00 0.00 0.00 64 1015.9
20260830220254 83 119 0.0 0.0 0.00 0.00 0.00 65 1015.9
20260830215311 83 117 0.0 0.0 0.00 0.00 0.00 63 1015.9
20260830214314 83 117 0.0 1.0 0.00 0.00 0.00 62 1015.9
20260830213249 83 119 0.0 0.0 0.00 0.00 0.00 68 1015.8
20260830212214 83 118 0.0 0.0 0.00 0.00 0.00 66 1015.7
20260830211212 83 118 0.0 0.0 0.00 0.00 0.00 69 1015.6
20260830210215 82 119 0.0 1.0 0.00 0.00 0.00 68 1015.4
20260830205231 82 111 0.0 0.0 0.00 0.00 0.00 68 1015.4
20260830204215 82 259 0.0 1.0 0.00 0.00 0.00 68 1015.4
20260830203143 82 259 0.0 2.0 0.00 0.00 0.00 69 1015.5
20260830202153 81 260 0.0 0.0 0.00 0.00 0.00 70 1015.8
20260830200045 81 261 0.0 0.0 0.00 0.00 0.00 71 1016.2
20260830195100 81 261 0.0 0.0 0.00 0.00 0.00 67 1016.5
20260830194119 82 261 0.0 0.0 0.00 0.00 0.00 70 1017.6
20260830193133 82 261 0.0 0.0 0.00 0.00 0.00 68 1018.0
20260830192149 82 261 0.0 0.0 0.00 0.00 0.00 66 1018.2
20260830191123 82 261 0.0 0.0 0.00 0.00 0.00 67 1018.4
20260830190127 82 261 0.0 2.0 0.00 0.00 0.00 69 1018.6
20260830185052 82 261 0.0 0.0 0.00 0.00 0.00 73 1018.7
20260830184024 82 261 0.0 1.0 0.00 0.00 0.00 72 1018.8
20260830182955 82 261 0.0 1.0 0.00 0.00 0.00 72 1018.9
20260830182002 82 260 0.0 0.0 0.00 0.00 0.00 71 1019.0
20260830181020 82 260 0.0 0.0 0.00 0.00 0.00 72 1019.0
20260830180038 82 260 0.0 2.0 0.00 0.00 0.00 70 1019.1
20260830175030 82 260 0.0 2.0 0.00 0.00 0.00 70 1019.1
20260830174034 82 260 0.0 2.0 0.00 0.00 0.00 70 1019.1
20260830173003 81 260 0.0 2.0 0.00 0.00 0.00 70 1019.1
20260830170822 80 260 0.0 0.0 0.00 0.00 0.00 76 1019.3
20260830165759 80 260 0.0 0.0 0.00 0.00 0.00 75 1019.5
20260830164822 80 260 0.0 0.0 0.00 0.00 0.00 76 1019.6
20260830163803 79 105 0.0 1.0 0.00 0.00 0.00 77 1019.7
20260830162813 79 105 0.0 0.0 0.00 0.00 0.00 78 1019.8
20260830161807 78 105 0.0 0.0 0.00 0.00 0.00 77 1019.8
20260830160733 78 105 0.0 1.0 0.00 0.00 0.00 76 1019.8
20260830155719 79 105 0.0 0.0 0.00 0.00 0.00 76 1019.6
20260830154738 79 105 0.0 1.0 0.00 0.00 0.00 75 1019.6
20260830153727 79 105 0.0 0.0 0.00 0.00 0.00 76 1019.4
20260830152706 79 105 0.0 0.0 0.00 0.00 0.00 75 1019.1
20260830151704 79 105 0.0 1.0 0.00 0.00 0.00 75 1019.0
20260830150647 79 105 0.0 0.0 0.00 0.00 0.00 75 1018.8
20260830145708 78 105 0.0 0.0 0.00 0.00 0.00 76 1018.6
20260830144634 77 105 0.0 2.0 0.00 0.00 0.00 75 1018.5
20260830142502 77 182 0.0 0.0 0.00 0.00 0.00 75 1018.3
20260830141454 77 182 0.0 0.0 0.00 0.00 0.00 76 1018.3
20260830140503 76 182 0.0 0.0 0.00 0.00 0.00 79 1018.2
20260830134351 74 182 0.0 0.0 0.00 0.00 0.00 84 1018.1
20260830133332 72 183 0.0 1.0 0.00 0.00 0.00 88 1018.1
20260830132258 71 183 0.0 0.0 0.00 0.00 0.00 90 1018.4
20260830131244 70 183 0.0 0.0 0.00 0.00 0.00 92 1018.4
20260830125114 69 183 0.0 0.0 0.00 0.00 0.00 95 1018.5
20260830121902 68 183 0.0 0.0 0.00 0.00 0.00 95 1018.6
20260830120913 67 183 0.0 0.0 0.00 0.00 0.00 95 1018.6
20260830115927 67 183 0.0 0.0 0.00 0.00 0.00 95 1018.6
20260830114952 67 183 0.0 0.0 0.00 0.00 0.00 95 1018.6
20260830113951 67 183 0.0 0.0 0.00 0.00 0.00 95 1018.6
20260830112918 67 183 0.0 0.0 0.00 0.00 0.00 95 1018.7
20260830111915 66 183 0.0 0.0 0.00 0.00 0.00 95 1018.7